Location: Cruquius
(52.3348°N, 4.6319°E)
Time: 10:20:21
(UTC+00:00)

Daily predictions for brighter satellites

Satellite Brightness Start Highest point End
(mag) Time Altitude Azimuth Time Altitude Azimuth Time Altitude Azimuth
S3M 4.1 18:35:15 10° S 18:41:31 62° E 18:47:50 10° NNE
Cosmos 1386 Rocket 4.4 18:35:53 10° N 18:42:00 76° ENE 18:48:00 10° SSE
SL-08 ROCKET BODY 4.5 18:36:01 10° N 18:42:12 75° ENE 18:48:15 10° SSE
Ariane Rocket 3.0 18:38:18 10° SSE 18:43:21 73° ENE 18:48:26 10° NNW
YAOGAN 1 4.0 18:39:30 10° S 18:43:37 42° W 18:47:46 10° NNW
STARLINK-1104 3.7 18:39:43 10° W 18:43:52 86° N 18:48:02 10° E
Cosmos 1110 Rocket 4.1 18:40:42 10° NNW 18:46:01 85° WSW 18:51:14 10° SSE
Cosmos 1455 Rocket 3.4 18:42:23 10° SSE 18:46:29 43° E 18:50:39 10° NNE
Cosmos 332 Rocket 4.5 18:42:23 10° NNW 18:47:14 61° WSW 18:52:04 10° S
STARLINK-1144 3.6 18:44:40 10° W 18:48:50 88° N 18:52:59 10° E
Cosmos 1892 Rocket 3.7 18:45:16 10° N 18:49:46 88° W 18:54:16 10° S
STARLINK-1072 4.2 18:45:56 10° WNW 18:49:49 50° SSW 18:53:42 10° SE
Cosmos 1626 Rocket 4.1 18:47:08 10° N 18:51:18 38° ENE 18:55:24 10° SE
SL-16 R/B 2.9 18:47:40 10° SSE 18:52:36 32° ESE 18:57:34 10° NE
Cosmos 2333 Rocket 3.2 18:47:17 10° SW 18:52:49 52° NW 18:58:23 10° NNE
STARLINK-1103 3.6 18:49:39 10° W 18:53:49 90° NNW 18:57:58 10° ESE
STARLINK-1096 4.2 18:50:24 10° WNW 18:54:15 48° SSW 18:58:07 10° SE
Cosmos 1626 2.3 18:50:42 10° N 18:54:20 51° ENE 18:57:57 10° SSE
Cosmos 2084 Rocket 4.1 18:50:11 10° NW 18:54:29 45° NNE 18:58:46 10° ESE
STARLINK-1234 3.5 18:52:47 10° SW 18:55:34 34° SSE 18:58:19 10° E
USA 186 1.9 18:52:18 10° SSE 18:55:42 63° ENE 18:59:03 10° N
Cosmos 1953 4.0 18:54:30 10° ESE 18:56:41 14° E 18:58:52 10° NE
ARGOS Delta rocket 4.1 18:51:42 10° SSE 18:56:51 85° ENE 19:02:16 10° N
Okean 1-7 Rocket 3.6 18:53:15 10° NNW 18:57:42 86° WSW 19:02:05 10° S
NOSS 2-1 (E) 3.0 18:55:10 10° SW 18:58:35 87° SE 19:02:32 10° NE
STARLINK-1079 4.3 18:54:53 10° W 18:58:43 46° SSW 19:02:33 10° SE
STARLINK-1101 3.6 18:54:39 10° W 18:58:49 89° SSW 19:02:46 11° ESE
Cosmos 1602 Rocket 4.2 18:54:40 10° N 18:58:51 37° ENE 19:02:58 10° SE
ATLAS 2AS CENTAUR R/B 3.8 18:55:40 10° NW 19:03:05 41° NNE 19:10:03 10° E
STARLINK-1116 4.4 18:59:22 10° W 19:03:10 43° SSW 19:06:59 10° SE
STARLINK-1102 3.6 18:59:37 10° WNW 19:03:47 87° SSW 19:07:32 13° ESE
H-2A R/B 2.1 19:02:22 10° SSE 19:07:42 88° WSW 19:12:54 10° NNW
Aureole 2 Rocket 3.8 19:05:20 10° N 19:08:17 24° NE 19:10:31 14° ESE
STARLINK-1111 3.6 19:04:35 10° WNW 19:08:45 84° SSW 19:12:19 14° ESE
STARLINK-1269 4.3 19:07:30 10° SSW 19:11:08 32° SE 19:14:25 12° E
ERBS 2.3 19:09:38 10° WSW 19:13:01 81° NNW 19:16:24 10° ENE
STARLINK-1073 3.6 19:09:34 10° WNW 19:13:44 82° SSW 19:17:06 15° ESE
Cosmos 2297 3.8 19:08:05 10° NNW 19:13:47 80° WSW 19:19:29 10° SSE
Cosmos 1544 Rocket 3.6 19:09:33 10° S 19:13:53 61° E 19:18:17 10° NNE
CZ-2C R/B 4.3 19:09:58 10° NNE 19:14:27 38° E 19:18:50 10° SSE
USA 234 3.7 19:08:26 10° ENE 19:14:30 39° SE 19:20:32 10° SSW
STARLINK-1200 4.3 19:12:08 10° SSW 19:15:48 34° SSE 19:18:56 13° E
NOSS 0 Rocket 4.3 19:10:28 10° SW 19:16:40 72° NW 19:22:53 10° NNE
STARLINK-1121 3.6 19:14:34 10° WNW 19:18:43 79° SSW 19:21:53 17° ESE
ADEOS Rocket 4.0 19:12:23 10° N 19:19:14 57° WNW 19:25:22 10° SW
STARLINK-1192 4.2 19:16:41 10° SW 19:20:25 36° SSE 19:23:24 15° E
Cosmos 1805 4.2 19:18:43 10° SSW 19:22:32 53° WNW 19:26:24 10° N
Cosmos 2237 Rocket 2.5 19:17:01 10° SW 19:22:38 74° WNW 19:28:19 10° NNE
COSMOS 2455 4.4 19:17:57 10° NNW 19:22:49 24° NNE 19:27:40 10° ENE
Cosmos 1302 Rocket 4.1 19:18:15 10° NNW 19:23:34 85° WSW 19:28:51 10° SSE
STARLINK-1106 3.6 19:19:32 10° WNW 19:23:41 77° SSW 19:26:39 18° ESE
NOSS 2-2 (E) 4.5 19:18:30 10° NW 19:23:54 79° NE 19:30:17 15° SE
STARLINK-1244 4.1 19:21:26 10° SW 19:25:11 38° SSE 19:28:01 16° E
STARLINK-1201 3.3 19:22:19 10° SW 19:25:27 45° SSE 19:27:31 19° E
Cosmos 2278 Rocket 4.5 19:21:03 10° NW 19:25:32 24° WSW 19:29:59 10° SSW
CZ-2C R/B 3.2 19:21:45 10° NNE 19:26:24 32° E 19:31:00 10° SSE
Cosmos 1992 Rocket 4.3 19:21:36 10° NNW 19:26:41 49° ENE 19:30:33 17° SE
Cosmos 2184 Rocket 4.4 19:20:49 10° N 19:26:54 45° ENE 19:32:14 13° SE
Cosmos 1758 Rocket 4.3 19:23:29 10° N 19:27:31 34° ENE 19:30:09 18° SE
STARLINK-1112 3.6 19:24:32 10° WNW 19:28:41 74° SSW 19:31:27 20° ESE
STARLINK-1138 4.0 19:26:03 10° SW 19:29:52 41° SSE 19:32:32 18° E
Cosmos 1269 Rocket 4.0 19:24:42 10° SSW 19:29:58 73° ESE 19:35:17 10° NNE
STARLINK-1209 2.7 19:27:52 10° WSW 19:30:44 56° SSE 19:32:14 24° E
NOSS 2-2 (C) 4.4 19:26:14 10° NW 19:31:30 77° NE 19:37:14 17° SE
STARLINK-1228 2.7 19:28:51 10° WSW 19:31:41 57° SSE 19:33:08 25° E
SeaSat 1 4.2 19:27:37 10° NNE 19:32:06 35° NW 19:36:33 10° WSW
STARLINK-1128 3.7 19:29:32 10° WNW 19:33:40 71° SSW 19:36:15 22° ESE
STARLINK-1143 3.9 19:30:47 10° SW 19:34:37 43° SSE 19:37:08 19° E
SL-8 R/B 3.9 19:30:21 10° WSW 19:35:01 55° S 19:38:02 21° ESE
ARGOS 3.6 19:30:30 10° S 19:35:52 64° WSW 19:41:15 10° NNW
SL-24 R/B 4.3 19:31:42 10° NNE 19:36:26 53° E 19:40:31 10° S
Cosmos 2251 Rocket 4.4 19:32:29 10° SSE 19:37:01 29° E 19:41:35 10° NE
STARLINK-1113 3.7 19:34:31 10° WNW 19:38:38 69° SSW 19:41:02 24° ESE
Cosmos 1470 2.6 19:38:52 10° S 19:42:43 76° E 19:46:38 10° NNE
STARLINK-1119 3.7 19:39:29 10° WNW 19:43:35 66° SSW 19:45:48 26° SE
STARLINK-1241 3.8 19:41:09 10° SW 19:45:01 48° SSE 19:47:06 24° E
STARLINK-1233 2.9 19:42:04 10° WSW 19:45:10 59° SSE 19:46:21 32° E
STARLINK-1212 2.9 19:42:32 10° WSW 19:45:37 59° SSE 19:46:46 33° E
STARLINK-1105 2.9 19:42:58 10° WSW 19:46:04 59° SSE 19:47:13 33° E
STARLINK-1206 2.9 19:43:27 10° WSW 19:46:32 59° SSE 19:47:38 34° E
ISS -3.6 19:43:35 10° W 19:46:55 62° SSW 19:48:11 33° SE
SL-08 RB Rocket 4.1 19:42:30 10° S 19:46:59 63° WSW 19:51:32 10° NNW
STARLINK-1247 2.9 19:43:54 10° WSW 19:46:59 60° SSE 19:48:03 35° E
Cosmos 2315 Rocket 4.0 19:40:46 10° S 19:47:05 88° E 19:53:31 10° N
STARLINK-1227 2.9 19:44:18 10° WSW 19:47:24 60° SSE 19:48:30 34° E
ATLAS CENTAUR R/B 4.0 19:44:38 10° WNW 19:47:33 17° NNW 19:50:21 10° NNE
Cosmos 2154 Rocket 4.5 19:41:45 10° N 19:47:47 42° ENE 19:51:33 22° SE
STARLINK-1218 2.9 19:44:47 10° WSW 19:47:52 60° SSE 19:48:55 36° E
SJ-6B 3.9 19:44:11 10° S 19:48:07 48° W 19:52:09 10° NNW
STARLINK-1226 2.9 19:45:15 10° WSW 19:48:20 61° SSE 19:49:22 36° E
STARLINK-1114 3.8 19:44:29 10° WNW 19:48:35 63° SSW 19:50:36 28° SE
MetOp-A 4.2 19:43:13 10° SSE 19:48:35 83° WSW 19:53:59 10° NNW
STARLINK-1254 2.9 19:45:39 10° WSW 19:48:45 61° SSE 19:49:48 36° E
Resurs 1-3 3.6 19:44:43 12° SSE 19:48:49 89° WSW 19:53:15 10° NNW
STARLINK-1215 2.8 19:46:09 10° WSW 19:49:14 61° SSE 19:50:14 37° E
STARLINK-1239 3.7 19:45:41 10° SW 19:49:35 51° SSE 19:51:30 26° E
STARLINK-1231 2.8 19:46:35 10° WSW 19:49:40 61° SSE 19:50:39 37° E
STARLINK-1232 2.8 19:47:29 10° WSW 19:50:34 62° SSE 19:51:31 38° E
Cosmos 1758 3.3 19:46:33 10° S 19:50:38 84° E 19:54:46 10° NNE
ERS-1 Rocket 4.2 19:48:48 20° E 19:50:43 26° ENE 19:54:50 10° N
STARLINK-1217 2.8 19:47:57 10° WSW 19:51:02 62° SSE 19:51:58 39° E
IRIDIUM 104 4.2 19:45:54 10° N 19:51:10 77° E 19:56:23 10° S
STARLINK-1208 2.8 19:48:21 10° WSW 19:51:28 63° SSE 19:52:25 39° E
BREEZE-M DEB (TANK) 3.9 19:44:52 10° W 19:51:47 57° SSW 19:53:10 31° SE
STARLINK-1229 2.8 19:48:50 10° WSW 19:51:55 63° SSE 19:52:48 40° E
STARLINK-1271 2.8 19:49:18 10° WSW 19:52:23 63° SSE 19:53:17 40° E
STARLINK-1270 2.8 19:49:45 10° WSW 19:52:50 64° SSE 19:53:42 41° E
STARLINK-1154 2.8 19:50:11 10° WSW 19:53:16 64° SSE 19:54:07 41° E
STARLINK-1130 (DARKSAT) 3.8 19:49:26 10° WNW 19:53:32 60° SSW 19:55:22 30° SE
STARLINK-1240 3.6 19:50:15 10° SW 19:54:10 53° SSE 19:55:56 29° E
STARLINK-1197 2.8 19:51:05 10° WSW 19:54:11 65° SSE 19:54:59 43° E
Cosmos 2369 Rocket 2.2 19:48:29 10° NNW 19:54:14 76° ENE 19:57:50 23° SE
CZ-2C R/B 4.2 19:49:53 10° SSW 19:54:38 41° W 19:59:14 10° NNW
STARLINK-1189 2.8 19:51:32 10° WSW 19:54:38 65° SSE 19:55:26 43° E
STARLINK-1187 2.8 19:52:21 10° WSW 19:55:29 70° SSE 19:56:20 43° E
STARLINK-1188 2.8 19:52:26 10° WSW 19:55:31 66° SSE 19:56:17 45° E
STARLINK-1198 2.8 19:52:40 10° WSW 19:55:45 66° SSE 19:56:31 45° E
STARLINK-1235 2.7 19:53:02 10° WSW 19:56:10 75° SSE 19:57:05 42° E
Resurs 01 Rocket 1.5 19:53:05 19° SSE 19:56:12 79° ENE 20:00:37 10° NNW
SPOT 5 4.1 19:56:05 20° ENE 19:57:03 21° ENE 20:00:20 10° N
STARLINK-1199 2.8 19:54:21 10° WSW 19:57:29 67° SSE 19:58:13 46° E
STARLINK-67 2.2 19:55:16 10° WSW 19:57:52 88° SE 19:58:04 73° E
Cosmos 2263 4.3 19:52:19 10° NNW 19:57:55 63° NE 20:01:00 27° SE
STARLINK-1191 2.8 19:54:49 10° WSW 19:57:57 67° SSE 19:58:39 47° E
STARLINK-1210 2.8 19:55:15 10° WSW 19:58:22 68° SSE 19:59:05 47° E
STARLINK-1084 3.9 19:54:25 10° WNW 19:58:29 57° SSW 20:00:09 32° SE
STARLINK-1216 3.6 19:54:51 10° SW 19:58:47 56° SSE 20:00:23 32° E
STARLINK-1221 2.8 19:55:43 10° WSW 19:58:51 68° SSE 19:59:33 48° E
STARLINK-1219 2.8 19:56:10 10° WSW 19:59:18 68° SSE 19:59:58 49° E
STARLINK-1222 2.8 19:56:36 10° WSW 19:59:44 69° SSE 20:00:23 50° E
STARLINK-1211 2.8 19:57:04 10° WSW 20:00:11 69° SSE 20:00:48 50° E
IRIDIUM 114 4.3 19:55:04 10° N 20:00:20 89° E 20:05:34 10° S
STARLINK-1214 2.8 19:57:31 10° WSW 20:00:38 69° SSE 20:01:15 51° E
STARLINK-1245 2.7 19:58:01 10° WSW 20:01:07 70° SSE 20:01:40 53° ESE
STARLINK-1238 2.8 19:58:25 10° WSW 20:01:33 70° SSE 20:02:07 53° E
STARLINK-1205 2.7 19:59:22 10° WSW 20:02:28 70° SSE 20:02:59 55° ESE
STARLINK-1204 2.7 19:59:47 10° WSW 20:02:53 71° SSE 20:03:23 56° ESE
Meteor 2-15 Rocket 4.4 19:57:02 10° S 20:03:07 84° E 20:09:13 10° NNE
STARLINK-1237 3.5 19:59:29 10° SW 20:03:26 59° SSE 20:04:52 35° E
STARLINK-1098 3.9 19:59:23 10° WNW 20:03:27 54° SSW 20:04:55 34° SSE
Meteor 1-21 Rocket 4.3 20:01:08 10° NNW 20:06:45 80° W 20:11:31 14° S
SPOT 3 Rocket 4.2 20:01:44 10° S 20:06:51 55° W 20:12:00 10° NNW
Cosmos 1726 2.3 20:06:30 42° SE 20:07:11 48° E 20:10:49 10° NNE
STARLINK-1202 3.5 20:04:04 10° WSW 20:08:02 61° SSE 20:09:18 39° E
Landsat 7 4.3 20:06:34 32° ESE 20:08:10 43° ENE 20:12:41 10° N
STARLINK-1123 4.0 20:04:24 10° WNW 20:08:26 51° SSW 20:09:44 36° SSE
IRIDIUM 103 4.4 20:04:16 10° N 20:09:30 78° W 20:14:43 10° S
Nadezhda 1 Rocket 4.3 20:06:17 21° SSE 20:10:13 47° E 20:16:17 10° NNE
Cosmos 2228 3.4 20:11:03 38° ESE 20:11:26 39° E 20:15:28 10° NNE
MOS 1 Rocket 3.5 20:06:22 10° NNE 20:11:33 75° ESE 20:16:55 10° S
CZ-4C R/B 4.0 20:06:57 10° WNW 20:12:14 32° N 20:18:26 10° NE
SAR-Lupe-2 3.9 20:09:06 10° NNE 20:12:21 45° E 20:12:21 45° E
STARLINK-1246 3.5 20:09:09 10° WSW 20:13:10 65° SSE 20:14:18 43° E
STARLINK-1097 4.1 20:09:22 10° WNW 20:13:22 49° SSW 20:14:29 37° SSE
Cosmos 292 Rocket 4.0 20:11:44 10° NNW 20:16:31 69° WSW 20:19:07 26° S
STARLINK-1099 4.2 20:14:22 10° WNW 20:18:21 46° SSW 20:19:17 38° S
Cosmos 1943 Rocket 2.5 20:13:58 10° NW 20:19:26 61° WSW 20:22:52 23° S
Cosmos 1943 3.7 20:19:28 35° ESE 20:20:01 35° ESE 20:25:08 10° NE
Cosmos 2074 Rocket 4.0 20:15:32 10° NNW 20:21:50 82° W 20:26:45 17° S
STARLINK-1224 3.4 20:17:59 10° WSW 20:22:00 70° SSE 20:22:45 54° E
NOSS 3-4 (A) 4.0 20:15:28 10° NW 20:22:09 61° NE 20:25:57 30° ESE
NOSS 3-4 (C) 4.0 20:15:34 10° NW 20:22:15 61° NE 20:26:03 30° ESE
STARLINK-1104 4.2 20:19:22 10° W 20:23:19 44° SSW 20:24:04 39° S
Cosmos 2058 Rocket 4.1 20:24:10 30° ENE 20:24:10 30° ENE 20:27:31 10° NNE
Cosmos 1328 3.7 20:22:04 10° N 20:26:05 73° ENE 20:26:44 58° SE
STARLINK-1225 3.4 20:22:40 10° WSW 20:26:42 73° SSE 20:27:17 60° ESE
STARLINK-1144 4.3 20:24:20 10° W 20:28:15 41° SSW 20:28:50 39° S
STARLINK-1203 3.3 20:24:20 10° WSW 20:28:17 76° SSE 20:28:44 65° ESE
Cosmos 1437 2.8 20:25:34 10° NNW 20:28:32 67° W 20:28:32 67° W
STARLINK-1234 3.4 20:27:34 10° W 20:29:58 53° W 20:29:58 53° W
STARLINK-1230 3.4 20:27:18 10° WSW 20:31:20 75° SSE 20:31:44 67° ESE
Cosmos 1953 2.6 20:29:29 16° SSW 20:32:34 64° WNW 20:36:33 10° N
STARLINK-1103 4.3 20:29:20 10° W 20:33:12 39° SSW 20:33:37 38° SSW
Meteor 2-10 4.0 20:28:33 13° S 20:33:19 85° ESE 20:38:55 10° NNE
SPOT 1/Viking Rocket 3.6 20:32:06 43° SE 20:33:39 64° ENE 20:38:51 10° N
Cosmos 2084 Rocket 4.4 20:29:47 10° WNW 20:34:01 43° SW 20:35:19 34° S
NOSS 3-3 (A) 4.1 20:28:27 10° SSW 20:34:04 47° ESE 20:40:24 10° NE
NOSS 3-3 (C) 4.1 20:28:34 10° SSW 20:34:11 46° ESE 20:40:30 10° NE
Spot 2 Rocket 3.5 20:33:07 36° SSE 20:35:16 87° WSW 20:40:26 10° NNW
Cosmos 1610 Rocket 4.4 20:29:35 10° N 20:35:53 87° E 20:39:03 31° SSE
STARLINK-1243 3.4 20:32:00 10° WSW 20:36:02 78° SSE 20:36:16 74° ESE
SL-16 R/B 2.9 20:30:55 10° SW 20:36:29 56° NW 20:42:04 10° NNE
STARLINK-1101 4.4 20:34:20 10° W 20:38:10 37° SSW 20:38:25 36° SSW
STARLINK-1236 3.4 20:36:40 10° WSW 20:40:42 80° SSE 20:40:45 80° SSE
Aureole 2 Rocket 3.6 20:38:56 10° NW 20:42:10 35° WSW 20:42:44 33° SW
IGS 5A 3.3 20:42:14 71° SE 20:42:36 79° ENE 20:46:48 10° NNW
ERBS 3.5 20:46:28 10° WNW 20:49:39 37° N 20:49:56 36° N
Terra 2.3 20:49:37 44° ENE 20:49:46 44° ENE 20:54:18 10° N
STARLINK-1269 3.5 20:46:04 10° WSW 20:49:49 75° SW 20:49:49 75° SW
CARTOSAT-1 3.7 20:50:52 58° ENE 20:50:52 58° ENE 20:55:04 10° N
Cosmos 2341 Rocket 4.0 20:45:42 10° N 20:52:02 67° ENE 20:53:51 47° SE
Cosmos 1703 3.7 20:48:48 10° NNW 20:52:40 58° W 20:53:09 53° SW
STARLINK-1200 3.7 20:50:47 10° WSW 20:54:21 68° WSW 20:54:21 68° WSW
ATLAS 2AS CENTAUR R/B 2.8 20:47:16 10° NW 20:55:05 83° NE 20:57:41 44° SE
Cosmos 1726 Rocket 3.4 20:55:08 76° S 20:55:28 89° E 20:59:57 10° N
Cosmos 1603 3.5 20:53:25 16° SSW 20:58:00 77° ESE 21:03:38 10° NNE
USA 234 3.2 20:51:25 10° ENE 20:58:00 89° SSE 21:04:34 10° WSW
Meteor 1-16 Rocket 4.2 20:54:16 20° SSW 20:58:00 73° WNW 21:03:32 10° N
STARLINK-1192 3.8 20:55:26 10° WSW 20:58:49 61° WSW 20:58:49 61° WSW
STARLINK-1244 4.0 21:00:14 10° WSW 21:03:26 55° W 21:03:26 55° W
APEX 4.5 20:57:27 10° NNW 21:04:34 78° NE 21:06:05 55° SE
Cosmos 1980 Rocket 4.5 21:02:33 10° NNW 21:05:46 15° NNE 21:08:59 10° ENE
CZ-2C R/B 3.6 21:01:55 10° N 21:06:52 45° WNW 21:11:46 10° SW
STARLINK-1138 4.2 21:04:56 10° W 21:07:58 49° W 21:07:58 49° W
Aureole 1 Rocket 4.3 21:07:14 45° SSE 21:09:19 58° ESE 21:15:41 10° NNE
COSMOS 2455 3.1 21:04:01 10° NW 21:10:00 58° NE 21:11:09 50° E
Cosmos 1953 Rocket 4.5 21:07:35 10° NNW 21:11:48 44° W 21:12:43 38° SW
Iridium 4 Rocket 3.8 21:08:26 10° N 21:11:53 42° NE 21:11:53 42° NE
STARLINK-1143 4.4 21:09:43 10° W 21:12:34 44° W 21:12:34 44° W
Cosmos 1461 3.5 21:11:02 10° NW 21:15:09 55° NNE 21:15:09 55° NNE
Cosmos 2251 Rocket 4.2 21:13:46 10° SW 21:19:01 55° WNW 21:24:20 10° NNE
Cosmos 2218 Rocket 3.9 21:14:36 10° N 21:20:46 68° ENE 21:21:25 63° ESE
Cosmos 1656 Rocket 4.0 21:16:08 10° NW 21:21:41 55° WSW 21:22:37 49° SSW
ISS -0.8 21:20:41 10° W 21:21:09 12° W 21:21:09 12° W
Cosmos 614 Rocket 4.3 21:27:58 54° NE 21:27:58 54° NE 21:32:06 10° NNE
ATLAS CENTAUR R/B 3.8 21:25:20 10° NNW 21:27:56 16° N 21:29:15 14° NNE
ERS-1 Rocket 3.2 21:28:47 58° SW 21:29:11 60° WSW 21:34:11 10° NNW
Resurs 01 Rocket 4.2 21:30:44 10° WSW 21:33:15 15° W 21:35:47 10° NW
Cosmos 2181 Rocket 3.8 21:33:10 71° ESE 21:33:30 72° E 21:39:43 10° NNE
SPOT 5 3.2 21:35:19 56° WNW 21:35:19 56° WNW 21:39:10 10° NNW
In-Cosmos 22 Rocket 4.2 21:29:17 10° N 21:35:06 76° ENE 21:35:12 76° E
Cosmos 2369 Rocket 4.0 21:33:19 10° NW 21:37:41 23° WSW 21:39:38 19° SW
Cosmos 921 Rocket 4.1 21:43:13 10° NNW 21:46:09 41° NW 21:46:09 41° NW
Cosmos 1656 4.5 21:43:13 10° NNW 21:48:37 41° NE 21:48:47 40° NE
SL-8 Rocket 4.2 21:49:35 10° NNW 21:55:48 64° W 21:56:35 59° SW
Cosmos 1340 Rocket 4.5 21:57:44 34° NNW 21:57:44 34° NNW 22:00:32 10° N
Cosmos 2058 4.5 21:56:01 10° NNW 21:58:26 34° NNW 21:58:26 34° NNW
Cosmos 2058 Rocket 4.5 22:01:24 35° WNW 22:01:27 35° WNW 22:05:39 10° N
CZ-4C R/B 3.8 21:56:27 10° NW 22:02:27 38° NNE 22:06:33 22° ENE
Cosmos 864 Rocket 4.5 21:56:25 10° NNW 22:02:40 72° W 22:02:57 71° WSW
Cosmos 2366 rocket 4.0 21:56:55 10° NNW 22:03:03 69° W 22:03:18 68° WSW
Cosmos 1943 3.9 22:01:06 28° WSW 22:03:55 52° NW 22:09:29 10° NNE
Cosmos 1763 Rocket 4.1 22:02:57 10° NNW 22:07:11 50° NNE 22:07:11 50° NNE
ASTEX 1 4.2 22:09:59 47° NNE 22:09:59 47° NNE 22:13:35 10° N
Mayak 0.8 22:05:14 10° NNE 22:06:55 24° NNE 22:06:55 24° NNE
NOSS 3-4 (A) 4.2 22:06:29 10° NW 22:13:07 49° WSW 22:13:24 49° SW
NOSS 3-4 (C) 4.2 22:06:35 10° NW 22:13:13 49° WSW 22:13:29 49° SW
Cosmos 1697 Rocket 3.5 22:21:02 10° NNW 22:26:03 44° NE 22:26:03 44° NE
Terra 3.5 22:28:29 28° WNW 22:28:29 28° WNW 22:31:52 10° NNW
Cosmos 1140 Rocket 4.4 22:36:41 47° NNW 22:36:41 47° NNW 22:40:44 10° NNE
Cosmos 841 Rocket 4.4 22:31:45 10° NNW 22:35:41 45° N 22:35:41 45° N
USA 234 3.6 22:34:27 10° ENE 22:40:53 61° N 22:47:19 10° W
Cosmos 2322 Rocket 4.5 22:37:55 10° NNW 22:41:44 18° NNE 22:44:37 13° ENE
ATLAS 2AS CENTAUR R/B 3.9 22:38:56 10° NW 22:45:08 31° WSW 22:45:08 31° WSW
Cosmos 1821 Rocket 4.2 22:41:12 10° NNW 22:46:52 69° NW 22:46:52 69° NW
Cosmos 1980 Rocket 3.2 22:46:06 10° NNW 22:50:55 39° NE 22:50:55 39° NE
COSMOS 2455 4.1 22:50:16 10° NW 22:54:18 32° W 22:54:18 32° W
Cosmos 1605 Rocket 4.4 22:59:45 10° N 23:04:45 56° NNE 23:04:45 56° NNE
ATLAS CENTAUR R/B 4.0 23:04:15 10° NNW 23:05:26 17° NNW 23:05:26 17° NNW
Cosmos 1934 Rocket 4.3 23:02:38 10° NNW 23:08:00 65° NNW 23:08:00 65° NNW
Cosmos 2082 Rocket 4.3 23:15:19 17° ENE 23:15:19 17° ENE 23:17:02 10° NE
SL-16 R/B 4.3 23:21:37 19° ENE 23:23:33 22° NE 23:28:11 10° N
ATLAS 5 CENTAUR R/B 3.7 23:39:11 25° NNE 23:39:11 25° NNE 23:41:29 10° NE
Cosmos 1833 Rocket 4.0 23:45:10 34° NE 23:45:10 34° NE 23:48:22 10° NE
Mayak 1.5 23:41:56 10° NNW 23:43:29 15° NW 23:43:29 15° NW
CZ-2D R/B 4.5 23:52:01 10° NE 23:54:16 14° ENE 23:54:16 14° ENE
